| time (UTC) | temp C | wind direction | speed KPH | gust KPH | rain 1hr cm | rain 24hr cm | rain mn cm | humidity % | barometer mb |
| 20260510061026 | 24 | 0.0 | 0.0 | 0.00 | 0.05 | 0.00 | 100 | 1009.6 | |
| 20260510060514 | 24 | 0.0 | 0.0 | 0.00 | 0.05 | 0.00 | 100 | 1009.6 | |
| 20260510060004 | 24 | 0.0 | 0.0 | 0.00 | 0.05 | 0.00 | 100 | 1009.6 | |
| 20260510055706 | 24 | 0.0 | 0.0 | 0.00 | 0.05 | 0.00 | 100 | 1009.6 | |
| 20260510055153 | 24 | 0.0 | 0.0 | 0.00 | 0.05 | 0.00 | 100 | 1009.6 | |
| 20260510054417 | 25 | 0.0 | 0.0 | 0.00 | 0.05 | 0.00 | 100 | 1009.6 | |
| 20260510053917 | 25 | 0.0 | 0.0 | 0.00 | 0.05 | 0.00 | 100 | 1009.8 | |
| 20260510053411 | 24 | 0.0 | 0.0 | 0.00 | 0.05 | 0.00 | 100 | 1009.8 | |
| 20260510053140 | 25 | 0.0 | 0.0 | 0.00 | 0.05 | 0.00 | 100 | 1009.8 | |
| 20260510052405 | 25 | 0.0 | 0.0 | 0.00 | 0.05 | 0.00 | 100 | 1010.0 | |
| 20260510051843 | 25 | 0.0 | 0.0 | 0.00 | 0.05 | 0.00 | 100 | 1010.0 | |
| 20260510051318 | 25 | 0.0 | 0.0 | 0.00 | 0.05 | 0.00 | 100 | 1010.1 | |
| 20260510050810 | 24 | 0.0 | 0.0 | 0.00 | 0.05 | 0.00 | 100 | 1010.1 | |
| 20260510050257 | 25 | 0.0 | 0.0 | 0.00 | 0.05 | 0.00 | 100 | 1010.1 | |
| 20260510045720 | 25 | 0.0 | 0.0 | 0.00 | 0.05 | 0.05 | 100 | 1009.8 | |
| 20260510045220 | 25 | 0.0 | 0.0 | 0.00 | 0.05 | 0.05 | 100 | 1009.8 | |
| 20260510044150 | 25 | 0.0 | 0.0 | 0.00 | 0.05 | 0.05 | 100 | 1010.0 | |
| 20260510043849 | 25 | 0.0 | 0.0 | 0.00 | 0.05 | 0.05 | 100 | 1010.0 | |
| 20260510043120 | 25 | 0.0 | 0.0 | 0.00 | 0.05 | 0.05 | 100 | 1010.0 | |
| 20260510042620 | 25 | 0.0 | 0.0 | 0.00 | 0.05 | 0.05 | 100 | 1009.8 | |
| 20260510042109 | 25 | 0.0 | 0.0 | 0.00 | 0.05 | 0.05 | 100 | 1009.8 | |
| 20260510041551 | 25 | 0.0 | 0.0 | 0.00 | 0.05 | 0.05 | 100 | 1009.8 | |
| 20260510041050 | 25 | 0.0 | 0.0 | 0.00 | 0.05 | 0.05 | 100 | 1010.1 | |
| 20260510040545 | 25 | 0.0 | 0.0 | 0.00 | 0.05 | 0.05 | 100 | 1010.1 | |
| 20260510040254 | 25 | 0.0 | 0.0 | 0.00 | 0.05 | 0.05 | 100 | 1010.1 | |
| 20260510035516 | 25 | 0.0 | 0.0 | 0.00 | 0.05 | 0.05 | 100 | 1010.1 | |
| 20260510035014 | 24 | 0.0 | 0.0 | 0.00 | 0.05 | 0.05 | 100 | 1010.1 | |
| 20260510034501 | 24 | 0.0 | 0.0 | 0.00 | 0.05 | 0.05 | 100 | 1010.1 | |
| 20260510033925 | 25 | 0.0 | 0.0 | 0.00 | 0.05 | 0.05 | 100 | 1009.8 | |
| 20260510033654 | 25 | 0.0 | 0.0 | 0.00 | 0.05 | 0.05 | 100 | 1009.8 | |
| 20260510032920 | 25 | 0.0 | 0.0 | 0.00 | 0.05 | 0.05 | 100 | 1009.8 | |
| 20260510032404 | 25 | 0.0 | 0.0 | 0.00 | 0.05 | 0.05 | 100 | 1009.5 | |
| 20260510031859 | 25 | 0.0 | 0.0 | 0.00 | 0.05 | 0.05 | 100 | 1009.5 | |
| 20260510031555 | 25 | 0.0 | 0.0 | 0.00 | 0.05 | 0.05 | 100 | 1009.5 | |
| 20260510030819 | 25 | 0.0 | 0.0 | 0.00 | 0.05 | 0.05 | 100 | 1009.0 | |
| 20260510030319 | 25 | 0.0 | 0.0 | 0.00 | 0.05 | 0.05 | 100 | 1009.0 | |
| 20260510025816 | 24 | 0.0 | 0.0 | 0.00 | 0.05 | 0.05 | 100 | 1008.6 | |
| 20260510025255 | 24 | 0.0 | 0.0 | 0.00 | 0.05 | 0.05 | 100 | 1008.6 | |
| 20260510024733 | 24 | 0.0 | 0.0 | 0.00 | 0.05 | 0.05 | 100 | 1008.6 | |
| 20260510024226 | 24 | 0.0 | 0.0 | 0.00 | 0.05 | 0.05 | 100 | 1008.5 | |
| 20260510023718 | 24 | 0.0 | 0.0 | 0.00 | 0.05 | 0.05 | 100 | 1008.5 | |
| 20260510023215 | 24 | 0.0 | 0.0 | 0.00 | 0.05 | 0.05 | 100 | 1008.5 | |
| 20260510022653 | 25 | 0.0 | 0.0 | 0.00 | 0.05 | 0.05 | 100 | 1008.2 | |
| 20260510022122 | 24 | 0.0 | 0.0 | 0.03 | 0.05 | 0.05 | 100 | 1008.2 | |
| 20260510021621 | 24 | 0.0 | 0.0 | 0.03 | 0.05 | 0.05 | 100 | 1008.2 | |
| 20260510021347 | 24 | 0.0 | 0.0 | 0.03 | 0.05 | 0.05 | 100 | 1007.9 | |
| 20260510020609 | 24 | 0.0 | 0.0 | 0.05 | 0.05 | 0.05 | 100 | 1007.9 | |
| 20260510020057 | 24 | 0.0 | 0.0 | 0.05 | 0.05 | 0.05 | 100 | 1007.9 | |
| 20260510015528 | 24 | 0.0 | 0.0 | 0.05 | 0.05 | 0.05 | 100 | 1007.5 | |
| 20260510015020 | 24 | 0.0 | 0.0 | 0.05 | 0.05 | 0.05 | 100 | 1007.5 | |
| 20260510014500 | 24 | 0.0 | 0.0 | 0.05 | 0.05 | 0.05 | 100 | 1007.5 | |
| 20260510013957 | 24 | 0.0 | 0.0 | 0.05 | 0.05 | 0.05 | 100 | 1007.0 | |
| 20260510013447 | 25 | 0.0 | 0.0 | 0.05 | 0.05 | 0.05 | 100 | 1007.0 | |
| 20260510012928 | 25 | 0.0 | 0.0 | 0.05 | 0.05 | 0.05 | 100 | 1007.0 | |
| 20260510012415 | 25 | 0.0 | 0.0 | 0.05 | 0.05 | 0.05 | 100 | 1006.8 | |
| 20260510011859 | 25 | 0.0 | 0.0 | 0.03 | 0.03 | 0.03 | 100 | 1006.8 | |
| 20260510010825 | 25 | 0.0 | 0.0 | 0.00 | 0.00 | 0.00 | 19 | 1007.5 | |
| 20260510010321 | 25 | 0.0 | 0.0 | 0.00 | 0.00 | 0.00 | 40 | 1007.5 | |
| 20260510005815 | 26 | 0.0 | 0.0 | 0.00 | 0.00 | 0.00 | 54 | 1007.0 | |
| 20260510005021 | 26 | 0.0 | 0.0 | 0.00 | 0.00 | 0.00 | 57 | 1007.0 | |
| 20260510004245 | 26 | 0.0 | 0.0 | 0.00 | 0.00 | 0.00 | 57 | 1007.4 | |
| 20260510003729 | 26 | 0.0 | 0.0 | 0.00 | 0.00 | 0.00 | 56 | 1007.4 | |
| 20260510003226 | 26 | 0.0 | 0.0 | 0.00 | 0.00 | 0.00 | 55 | 1007.4 | |
| 20260510002722 | 27 | 0.0 | 0.0 | 0.00 | 0.00 | 0.00 | 53 | 1006.8 | |
| 20260510002220 | 27 | 0.0 | 0.0 | 0.00 | 0.00 | 0.00 | 53 | 1006.8 | |
| 20260510001720 | 29 | 0.0 | 0.0 | 0.00 | 0.00 | 0.00 | 53 | 1006.8 | |
| 20260510001449 | 31 | 0.0 | 0.0 | 0.00 | 0.00 | 0.00 | 50 | 1006.2 | |
| 20260510000944 | 31 | 0.0 | 0.0 | 0.00 | 0.00 | 0.00 | 51 | 1006.2 | |
| 20260510000207 | 32 | 0.0 | 0.0 | 0.00 | 0.00 | 0.00 | 50 | 1006.2 | |
| 20260509235707 | 32 | 0.0 | 0.0 | 0.00 | 0.00 | 0.00 | 49 | 1006.4 | |
| 20260509234650 | 32 | 0.0 | 0.0 | 0.00 | 0.00 | 0.00 | 48 | 1006.4 | |
| 20260509234419 | 32 | 0.0 | 0.0 | 0.00 | 0.00 | 0.00 | 48 | 1006.3 | |
| 20260509233621 | 32 | 0.0 | 0.0 | 0.00 | 0.00 | 0.00 | 48 | 1006.3 | |
| 20260509233118 | 33 | 0.0 | 0.0 | 0.00 | 0.00 | 0.00 | 47 | 1006.3 | |
| 20260509232620 | 33 | 0.0 | 0.0 | 0.00 | 0.00 | 0.00 | 47 | 1006.3 | |
| 20260509232056 | 33 | 0.0 | 0.0 | 0.00 | 0.00 | 0.00 | 47 | 1006.3 | |
| 20260509231553 | 33 | 0.0 | 0.0 | 0.00 | 0.00 | 0.00 | 46 | 1006.3 | |
| 20260509231051 | 33 | 0.0 | 0.0 | 0.00 | 0.00 | 0.00 | 47 | 1006.3 | |
| 20260509230540 | 33 | 0.0 | 0.0 | 0.00 | 0.00 | 0.00 | 48 | 1006.3 | |
| 20260509230019 | 33 | 0.0 | 0.0 | 0.00 | 0.00 | 0.00 | 47 | 1006.3 | |
| 20260509225509 | 32 | 0.0 | 0.0 | 0.00 | 0.00 | 0.00 | 48 | 1006.0 | |
| 20260509225008 | 32 | 0.0 | 0.0 | 0.00 | 0.00 | 0.00 | 49 | 1006.0 | |
| 20260509224737 | 32 | 0.0 | 0.0 | 0.00 | 0.00 | 0.00 | 49 | 1006.0 | |
| 20260509223945 | 32 | 0.0 | 0.0 | 0.00 | 0.00 | 0.00 | 49 | 1006.0 | |
| 20260509223433 | 32 | 0.0 | 0.0 | 0.00 | 0.00 | 0.00 | 48 | 1006.0 | |
| 20260509222930 | 32 | 0.0 | 0.0 | 0.00 | 0.00 | 0.00 | 48 | 1006.0 | |
| 20260509222426 | 33 | 0.0 | 0.0 | 0.00 | 0.00 | 0.00 | 47 | 1005.8 | |
| 20260509221922 | 33 | 0.0 | 0.0 | 0.00 | 0.00 | 0.00 | 48 | 1005.8 | |
| 20260509221652 | 33 | 0.0 | 0.0 | 0.00 | 0.00 | 0.00 | 48 | 1005.8 | |
| 20260509220917 | 33 | 257 | 4.8 | 6.4 | 0.00 | 0.00 | 0.00 | 47 | 1006.0 |
| 20260509220357 | 33 | 257 | 4.8 | 6.4 | 0.00 | 0.00 | 0.00 | 47 | 1006.0 |
| 20260509215839 | 33 | 257 | 4.8 | 9.7 | 0.00 | 0.00 | 0.00 | 47 | 1006.0 |
| 20260509215608 | 33 | 257 | 4.8 | 9.7 | 0.00 | 0.00 | 0.00 | 47 | 1006.0 |
| 20260509214833 | 33 | 242 | 6.4 | 11.3 | 0.00 | 0.00 | 0.00 | 48 | 1006.0 |
| 20260509214334 | 33 | 267 | 4.8 | 11.3 | 0.00 | 0.00 | 0.00 | 48 | 1006.0 |
| 20260509214105 | 33 | 294 | 4.8 | 11.3 | 0.00 | 0.00 | 0.00 | 47 | 1006.0 |
| 20260509213334 | 33 | 261 | 6.4 | 11.3 | 0.00 | 0.00 | 0.00 | 47 | 1006.0 |
| 20260509212835 | 33 | 241 | 4.8 | 12.9 | 0.00 | 0.00 | 0.00 | 47 | 1006.0 |
| 20260509212334 | 33 | 273 | 4.8 | 12.9 | 0.00 | 0.00 | 0.00 | 47 | 1006.0 |
| 20260509211833 | 33 | 13 | 4.8 | 11.3 | 0.00 | 0.00 | 0.00 | 46 | 1006.0 |
| 20260509211334 | 33 | 318 | 4.8 | 11.3 | 0.00 | 0.00 | 0.00 | 47 | 1006.0 |
| 20260509210828 | 33 | 245 | 3.2 | 9.7 | 0.00 | 0.00 | 0.00 | 46 | 1006.2 |
| 20260509210315 | 32 | 296 | 4.8 | 14.5 | 0.00 | 0.00 | 0.00 | 46 | 1006.2 |
| 20260509205804 | 32 | 244 | 4.8 | 14.5 | 0.00 | 0.00 | 0.00 | 46 | 1006.5 |
| 20260509205252 | 32 | 286 | 4.8 | 12.9 | 0.00 | 0.00 | 0.00 | 46 | 1006.5 |
| 20260509204229 | 33 | 12 | 3.2 | 9.7 | 0.00 | 0.00 | 0.00 | 45 | 1006.6 |
| 20260509203722 | 32 | 303 | 3.2 | 11.3 | 0.00 | 0.00 | 0.00 | 46 | 1006.6 |
| 20260509203221 | 32 | 265 | 4.8 | 11.3 | 0.00 | 0.00 | 0.00 | 46 | 1006.6 |
| 20260509202721 | 32 | 291 | 6.4 | 11.3 | 0.00 | 0.00 | 0.00 | 45 | 1006.9 |
| 20260509202222 | 32 | 290 | 3.2 | 11.3 | 0.00 | 0.00 | 0.00 | 45 | 1006.9 |
| 20260509201721 | 32 | 186 | 1.6 | 12.9 | 0.00 | 0.00 | 0.00 | 45 | 1006.9 |
| 20260509201454 | 32 | 277 | 3.2 | 12.9 | 0.00 | 0.00 | 0.00 | 46 | 1007.0 |
| 20260509200721 | 32 | 44 | 4.8 | 12.9 | 0.00 | 0.00 | 0.00 | 46 | 1007.0 |
| 20260509200222 | 32 | 315 | 4.8 | 12.9 | 0.00 | 0.00 | 0.00 | 45 | 1007.0 |
| 20260509195721 | 32 | 237 | 4.8 | 12.9 | 0.00 | 0.00 | 0.00 | 45 | 1007.0 |
| 20260509195222 | 32 | 271 | 4.8 | 12.9 | 0.00 | 0.00 | 0.00 | 45 | 1007.0 |
| 20260509194953 | 32 | 232 | 4.8 | 12.9 | 0.00 | 0.00 | 0.00 | 45 | 1007.0 |
| 20260509194219 | 32 | 196 | 4.8 | 12.9 | 0.00 | 0.00 | 0.00 | 45 | 1007.1 |
| 20260509193721 | 31 | 180 | 1.6 | 8.0 | 0.00 | 0.00 | 0.00 | 45 | 1007.1 |
| 20260509193220 | 31 | 101 | 1.6 | 8.0 | 0.00 | 0.00 | 0.00 | 45 | 1007.1 |
| 20260509192721 | 31 | 128 | 3.2 | 8.0 | 0.00 | 0.00 | 0.00 | 44 | 1007.5 |
| 20260509192220 | 31 | 198 | 3.2 | 8.0 | 0.00 | 0.00 | 0.00 | 44 | 1007.5 |
| 20260509191719 | 31 | 223 | 4.8 | 9.7 | 0.00 | 0.00 | 0.00 | 44 | 1007.5 |
| 20260509191219 | 31 | 246 | 6.4 | 9.7 | 0.00 | 0.00 | 0.00 | 43 | 1007.3 |
| 20260509190719 | 31 | 0.0 | 0.0 | 0.00 | 0.00 | 0.00 | 42 | 1007.3 | |
| 20260509190208 | 31 | 0.0 | 0.0 | 0.00 | 0.00 | 0.00 | 42 | 1007.3 | |
| 20260509185659 | 30 | 0.0 | 0.0 | 0.00 | 0.00 | 0.00 | 42 | 1007.2 | |
| 20260509185131 | 30 | 0.0 | 0.0 | 0.00 | 0.00 | 0.00 | 42 | 1007.2 | |
| 20260509184630 | 30 | 0.0 | 0.0 | 0.00 | 0.00 | 0.00 | 41 | 1007.2 | |
| 20260509184122 | 30 | 0.0 | 0.0 | 0.00 | 0.00 | 0.00 | 40 | 1007.5 | |
| 20260509183602 | 30 | 0.0 | 0.0 | 0.00 | 0.00 | 0.00 | 39 | 1007.5 | |
| 20260509182534 | 30 | 0.0 | 0.0 | 0.00 | 0.00 | 0.00 | 39 | 1007.9 | |
| 20260509182026 | 30 | 0.0 | 0.0 | 0.00 | 0.00 | 0.00 | 39 | 1007.9 | |
| 20260509181521 | 30 | 0.0 | 0.0 | 0.00 | 0.00 | 0.00 | 36 | 1007.9 | |
| 20260509181019 | 30 | 0.0 | 0.0 | 0.00 | 0.00 | 0.00 | 37 | 1007.9 | |
| 20260509180512 | 30 | 0.0 | 0.0 | 0.00 | 0.00 | 0.00 | 35 | 1007.9 | |
| 20260509180005 | 30 | 0.0 | 0.0 | 0.00 | 0.00 | 0.00 | 27 | 1007.9 | |
| 20260509175444 | 30 | 0.0 | 0.0 | 0.00 | 0.00 | 0.00 | 28 | 1008.4 | |
| 20260509174935 | 29 | 0.0 | 0.0 | 0.00 | 0.00 | 0.00 | 24 | 1008.4 | |
| 20260509174432 | 29 | 0.0 | 0.0 | 0.00 | 0.00 | 0.00 | 18 | 1008.4 | |
| 20260509173920 | 28 | 0.0 | 0.0 | 0.00 | 0.00 | 0.00 | 14 | 1008.6 | |
| 20260509173410 | 28 | 0.0 | 0.0 | 0.00 | 0.00 | 0.00 | 15 | 1008.6 | |
| 20260509172523 | 28 | 0.0 | 0.0 | 0.00 | 0.00 | 0.00 | 100 | 1008.9 | |
| 20260509172019 | 27 | 0.0 | 0.0 | 0.00 | 0.00 | 0.00 | 100 | 1008.9 | |
| 20260509171518 | 27 | 0.0 | 0.0 | 0.00 | 0.00 | 0.00 | 100 | 1008.9 | |
| 20260509171017 | 27 | 0.0 | 0.0 | 0.00 | 0.00 | 0.00 | 100 | 1009.1 | |
| 20260509170452 | 27 | 0.0 | 0.0 | 0.00 | 0.00 | 0.00 | 100 | 1009.1 | |
| 20260509165417 | 27 | 0.0 | 0.0 | 0.00 | 0.00 | 0.00 | 100 | 1009.0 | |
| 20260509164835 | 27 | 0.0 | 0.0 | 0.00 | 0.00 | 0.00 | 100 | 1009.0 | |
| 20260509164332 | 26 | 0.0 | 0.0 | 0.00 | 0.00 | 0.00 | 100 | 1009.0 | |
| 20260509163831 | 26 | 0.0 | 0.0 | 0.00 | 0.00 | 0.00 | 100 | 1009.1 | |
| 20260509163320 | 26 | 0.0 | 0.0 | 0.00 | 0.00 | 0.00 | 100 | 1009.1 | |
| 20260509162816 | 26 | 0.0 | 0.0 | 0.00 | 0.00 | 0.00 | 100 | 1008.9 | |
| 20260509162228 | 26 | 0.0 | 0.0 | 0.00 | 0.00 | 0.00 | 100 | 1008.9 | |
| 20260509161720 | 25 | 0.0 | 0.0 | 0.00 | 0.00 | 0.00 | 100 | 1008.9 | |
| 20260509161423 | 25 | 0.0 | 0.0 | 0.00 | 0.00 | 0.00 | 100 | 1008.7 | |
| 20260509160650 | 25 | 0.0 | 0.0 | 0.00 | 0.00 | 0.00 | 100 | 1008.7 | |
| 20260509160121 | 25 | 0.0 | 0.0 | 0.00 | 0.00 | 0.00 | 100 | 1008.7 | |
| 20260509155615 | 25 | 0.0 | 0.0 | 0.00 | 0.00 | 0.00 | 100 | 1008.6 | |
| 20260509154609 | 25 | 0.0 | 0.0 | 0.00 | 0.00 | 0.00 | 100 | 1008.6 | |
| 20260509154318 | 25 | 0.0 | 0.0 | 0.00 | 0.00 | 0.00 | 100 | 1008.6 | |
| 20260509153532 | 25 | 0.0 | 0.0 | 0.00 | 0.00 | 0.00 | 100 | 1008.6 | |
| 20260509153017 | 25 | 0.0 | 0.0 | 0.00 | 0.00 | 0.00 | 100 | 1008.6 | |
| 20260509152516 | 25 | 0.0 | 0.0 | 0.00 | 0.00 | 0.00 | 100 | 1008.6 | |
| 20260509151945 | 25 | 0.0 | 0.0 | 0.00 | 0.00 | 0.00 | 100 | 1008.6 | |
| 20260509151445 | 25 | 0.0 | 0.0 | 0.00 | 0.00 | 0.00 | 100 | 1008.6 | |
| 20260509150921 | 25 | 0.0 | 0.0 | 0.00 | 0.00 | 0.00 | 100 | 1008.6 | |
| 20260509150419 | 25 | 0.0 | 0.0 | 0.00 | 0.00 | 0.00 | 100 | 1008.6 | |
| 20260509150149 | 25 | 0.0 | 0.0 | 0.00 | 0.00 | 0.00 | 100 | 1008.6 | |
| 20260509145404 | 25 | 0.0 | 0.0 | 0.00 | 0.00 | 0.00 | 100 | 1008.0 | |
| 20260509144843 | 25 | 0.0 | 0.0 | 0.00 | 0.00 | 0.00 | 100 | 1008.0 | |
| 20260509144324 | 25 | 0.0 | 0.0 | 0.00 | 0.00 | 0.00 | 100 | 1008.0 | |
| 20260509143816 | 25 | 0.0 | 0.0 | 0.00 | 0.00 | 0.00 | 100 | 1008.0 | |
| 20260509143305 | 24 | 0.0 | 0.0 | 0.00 | 0.00 | 0.00 | 100 | 1008.0 | |
| 20260509142758 | 24 | 0.0 | 0.0 | 0.00 | 0.00 | 0.00 | 100 | 1008.0 | |
| 20260509142221 | 24 | 0.0 | 0.0 | 0.00 | 0.00 | 0.00 | 100 | 1008.0 | |
| 20260509141721 | 24 | 0.0 | 0.0 | 0.00 | 0.00 | 0.00 | 100 | 1008.0 | |
| 20260509141152 | 24 | 0.0 | 0.0 | 0.00 | 0.00 | 0.00 | 100 | 1007.6 | |
| 20260509140645 | 24 | 0.0 | 0.0 | 0.00 | 0.00 | 0.00 | 100 | 1007.6 | |
| 20260509140354 | 24 | 0.0 | 0.0 | 0.00 | 0.00 | 0.00 | 100 | 1007.6 | |
| 20260509135623 | 24 | 0.0 | 0.0 | 0.00 | 0.00 | 0.00 | 100 | 1008.0 | |
| 20260509135115 | 24 | 0.0 | 0.0 | 0.00 | 0.00 | 0.00 | 100 | 1008.0 | |
| 20260509134103 | 24 | 0.0 | 0.0 | 0.00 | 0.00 | 0.00 | 100 | 1008.5 | |
| 20260509133558 | 24 | 0.0 | 0.0 | 0.00 | 0.00 | 0.00 | 100 | 1008.5 | |
| 20260509133052 | 24 | 0.0 | 0.0 | 0.00 | 0.00 | 0.00 | 100 | 1008.5 | |
| 20260509132759 | 24 | 0.0 | 0.0 | 0.00 | 0.00 | 0.00 | 100 | 1009.0 | |
| 20260509132258 | 24 | 0.0 | 0.0 | 0.00 | 0.00 | 0.00 | 100 | 1009.0 | |
| 20260509131517 | 24 | 0.0 | 0.0 | 0.00 | 0.00 | 0.00 | 100 | 1009.0 | |
| 20260509131000 | 24 | 0.0 | 0.0 | 0.00 | 0.00 | 0.00 | 100 | 1009.1 | |
| 20260509130456 | 24 | 0.0 | 0.0 | 0.00 | 0.00 | 0.00 | 100 | 1009.1 | |
| 20260509125922 | 24 | 0.0 | 0.0 | 0.00 | 0.00 | 0.00 | 100 | 1009.1 | |
| 20260509125647 | 24 | 0.0 | 0.0 | 0.00 | 0.00 | 0.00 | 100 | 1008.7 | |
| 20260509124913 | 24 | 0.0 | 0.0 | 0.00 | 0.00 | 0.00 | 100 | 1008.7 | |
| 20260509124409 | 24 | 0.0 | 0.0 | 0.00 | 0.00 | 0.00 | 100 | 1008.7 | |
| 20260509123858 | 24 | 0.0 | 0.0 | 0.00 | 0.00 | 0.00 | 100 | 1008.9 | |
| 20260509123332 | 24 | 0.0 | 0.0 | 0.00 | 0.00 | 0.00 | 100 | 1008.9 | |
| 20260509122823 | 24 | 0.0 | 0.0 | 0.00 | 0.00 | 0.00 | 100 | 1009.0 | |
| 20260509122321 | 24 | 0.0 | 0.0 | 0.00 | 0.00 | 0.00 | 100 | 1009.0 | |
| 20260509121805 | 24 | 0.0 | 0.0 | 0.00 | 0.00 | 0.00 | 100 | 1009.0 | |
| 20260509121459 | 24 | 0.0 | 0.0 | 0.00 | 0.00 | 0.00 | 100 | 1009.1 | |
| 20260509120720 | 24 | 0.0 | 0.0 | 0.00 | 0.00 | 0.00 | 100 | 1009.1 | |
| 20260509120451 | 24 | 0.0 | 0.0 | 0.00 | 0.00 | 0.00 | 100 | 1009.1 | |
| 20260509115131 | 24 | 0.0 | 0.0 | 0.00 | 0.00 | 0.00 | 100 | 1008.6 | |
| 20260509114625 | 24 | 0.0 | 0.0 | 0.00 | 0.00 | 0.00 | 100 | 1008.6 | |
| 20260509114121 | 24 | 0.0 | 0.0 | 0.00 | 0.00 | 0.00 | 100 | 1008.1 | |
| 20260509113557 | 24 | 0.0 | 0.0 | 0.00 | 0.00 | 0.00 | 100 | 1008.1 | |
| 20260509113052 | 24 | 0.0 | 0.0 | 0.00 | 0.00 | 0.00 | 100 | 1008.1 | |
| 20260509112523 | 24 | 0.0 | 0.0 | 0.00 | 0.00 | 0.00 | 100 | 1008.1 | |
| 20260509112250 | 24 | 0.0 | 0.0 | 0.00 | 0.00 | 0.00 | 100 | 1008.1 | |
| 20260509111518 | 24 | 0.0 | 0.0 | 0.00 | 0.00 | 0.00 | 100 | 1008.1 | |
| 20260509110943 | 24 | 0.0 | 0.0 | 0.00 | 0.00 | 0.00 | 100 | 1008.1 | |
| 20260509110443 | 24 | 0.0 | 0.0 | 0.00 | 0.00 | 0.00 | 100 | 1008.1 | |
| 20260509105927 | 24 | 0.0 | 0.0 | 0.00 | 0.00 | 0.00 | 100 | 1008.1 | |
| 20260509105650 | 24 | 0.0 | 0.0 | 0.00 | 0.00 | 0.00 | 100 | 1008.1 | |
| 20260509104913 | 24 | 0.0 | 0.0 | 0.00 | 0.00 | 0.00 | 100 | 1008.1 | |
| 20260509104329 | 24 | 0.0 | 0.0 | 0.00 | 0.00 | 0.00 | 100 | 1007.8 | |
| 20260509103829 | 24 | 0.0 | 0.0 | 0.00 | 0.00 | 0.00 | 100 | 1007.8 | |
| 20260509103549 | 24 | 0.0 | 0.0 | 0.00 | 0.00 | 0.00 | 100 | 1007.8 | |
| 20260509102817 | 24 | 0.0 | 0.0 | 0.00 | 0.00 | 0.00 | 100 | 1008.0 | |
| 20260509102308 | 24 | 0.0 | 0.0 | 0.00 | 0.00 | 0.00 | 100 | 1008.0 | |
| 20260509101728 | 24 | 0.0 | 0.0 | 0.00 | 0.00 | 0.00 | 100 | 1008.0 | |
| 20260509101146 | 24 | 0.0 | 0.0 | 0.00 | 0.00 | 0.00 | 100 | 1007.6 | |
| 20260509100619 | 24 | 0.0 | 0.0 | 0.00 | 0.00 | 0.00 | 100 | 1007.6 | |
| 20260509100119 | 24 | 0.0 | 0.0 | 0.00 | 0.00 | 0.00 | 100 | 1007.6 | |
| 20260509095609 | 24 | 0.0 | 0.0 | 0.00 | 0.00 | 0.00 | 100 | 1007.6 | |
| 20260509095333 | 24 | 0.0 | 0.0 | 0.00 | 0.00 | 0.00 | 100 | 1007.6 | |
| 20260509094552 | 24 | 0.0 | 0.0 | 0.00 | 0.00 | 0.00 | 100 | 1007.6 | |
| 20260509094046 | 24 | 0.0 | 0.0 | 0.00 | 0.00 | 0.00 | 100 | 1007.5 | |
| 20260509093532 | 24 | 0.0 | 0.0 | 0.00 | 0.00 | 0.00 | 100 | 1007.5 | |
| 20260509093021 | 24 | 0.0 | 0.0 | 0.00 | 0.00 | 0.00 | 100 | 1007.5 | |
| 20260509092521 | 24 | 0.0 | 0.0 | 0.00 | 0.00 | 0.00 | 100 | 1007.5 | |
| 20260509092223 | 24 | 0.0 | 0.0 | 0.00 | 0.00 | 0.00 | 100 | 1007.5 | |
| 20260509091421 | 24 | 0.0 | 0.0 | 0.00 | 0.00 | 0.00 | 100 | 1007.5 | |
| 20260509090916 | 24 | 0.0 | 0.0 | 0.00 | 0.00 | 0.00 | 100 | 1007.5 | |
| 20260509090334 | 24 | 0.0 | 0.0 | 0.00 | 0.00 | 0.00 | 100 | 1007.5 | |
| 20260509085826 | 24 | 0.0 | 0.0 | 0.00 | 0.00 | 0.00 | 100 | 1007.5 | |
| 20260509085322 | 24 | 0.0 | 0.0 | 0.00 | 0.00 | 0.00 | 100 | 1007.8 | |
| 20260509084821 | 24 | 0.0 | 0.0 | 0.00 | 0.00 | 0.00 | 100 | 1007.8 | |
| 20260509084553 | 24 | 0.0 | 0.0 | 0.00 | 0.00 | 0.00 | 100 | 1007.6 | |
| 20260509083817 | 24 | 0.0 | 0.0 | 0.00 | 0.00 | 0.00 | 100 | 1007.6 | |
| 20260509083317 | 24 | 0.0 | 0.0 | 0.00 | 0.00 | 0.00 | 100 | 1007.6 | |
| 20260509082221 | 24 | 0.0 | 0.0 | 0.00 | 0.00 | 0.00 | 100 | 1007.6 | |
| 20260509081717 | 24 | 0.0 | 0.0 | 0.00 | 0.00 | 0.00 | 100 | 1007.6 | |
| 20260509081212 | 24 | 0.0 | 0.0 | 0.00 | 0.00 | 0.00 | 100 | 1007.2 | |
| 20260509080626 | 24 | 0.0 | 0.0 | 0.00 | 0.00 | 0.00 | 100 | 1007.2 | |
| 20260509080128 | 24 | 0.0 | 0.0 | 0.00 | 0.00 | 0.00 | 100 | 1007.2 | |
| 20260509075621 | 24 | 0.0 | 0.0 | 0.00 | 0.00 | 0.00 | 100 | 1007.3 | |
| 20260509074622 | 24 | 0.0 | 0.0 | 0.00 | 0.00 | 0.00 | 100 | 1007.3 | |
| 20260509074113 | 24 | 0.0 | 0.0 | 0.00 | 0.00 | 0.00 | 100 | 1007.6 | |
| 20260509073606 | 24 | 0.0 | 0.0 | 0.00 | 0.00 | 0.00 | 100 | 1007.6 | |
| 20260509073018 | 24 | 0.0 | 0.0 | 0.00 | 0.00 | 0.00 | 100 | 1007.6 | |
| 20260509072731 | 24 | 0.0 | 0.0 | 0.00 | 0.00 | 0.00 | 100 | 1008.2 | |
| 20260509071952 | 24 | 0.0 | 0.0 | 0.00 | 0.00 | 0.00 | 100 | 1008.2 | |
| 20260509071435 | 24 | 0.0 | 0.0 | 0.00 | 0.00 | 0.00 | 100 | 1008.2 | |
| 20260509070922 | 24 | 0.0 | 0.0 | 0.00 | 0.00 | 0.00 | 100 | 1008.5 | |
| 20260509070418 | 24 | 0.0 | 0.0 | 0.00 | 0.00 | 0.00 | 100 | 1008.5 | |
| 20260509065902 | 24 | 0.0 | 0.0 | 0.00 | 0.00 | 0.00 | 100 | 1008.5 | |
| 20260509065616 | 24 | 0.0 | 0.0 | 0.00 | 0.00 | 0.00 | 100 | 1008.4 | |
| 20260509064831 | 24 | 0.0 | 0.0 | 0.00 | 0.00 | 0.00 | 100 | 1008.4 | |
| 20260509064321 | 24 | 0.0 | 0.0 | 0.00 | 0.00 | 0.00 | 100 | 1008.3 | |
| 20260509064051 | 24 | 0.0 | 0.0 | 0.00 | 0.00 | 0.00 | 100 | 1008.3 | |
| 20260509063321 | 24 | 0.0 | 0.0 | 0.00 | 0.00 | 0.00 | 100 | 1008.3 | |
| 20260509062737 | 24 | 0.0 | 0.0 | 0.00 | 0.00 | 0.00 | 100 | 1008.1 | |
| 20260509062217 | 24 | 0.0 | 0.0 | 0.00 | 0.00 | 0.00 | 100 | 1008.1 | |
| 20260509061717 | 24 | 0.0 | 0.0 | 0.00 | 0.00 | 0.00 | 100 | 1008.1 |